Regional Weather Roundup
Issued by NWS

Home | Current Version | Previous Version | Text Only | Print | Product List | Glossary On
Versions: 1 2 3 4 5 6 7 8 9 10 11 12 13 14 15 16 17 18 19 20 21 22 23 24 25 26 27 28 29 30 31 32 33 34 35 36 37 38 39 40 41 42 43 44 45 46 47 48 49 50
000
ASUS43 KMKX 021321
RWRWI

WISCONSIN REGIONAL WEATHER ROUNDUP
NATIONAL WEATHER SERVICE MILWAUKEE/SULLIVAN WI
800 AM CDT TUE JUN 02 2015

NOTE: "FAIR" INDICATES FEW OR NO CLOUDS BELOW 12,000 FEET WITH NO
SIGNIFICANT WEATHER AND/OR OBSTRUCTIONS TO VISIBILITY.

WIZ001-002-006>008-014>016-023>028-021400-
NORTHWEST WISCONSIN

CITY           SKY/WX    TMP DP  RH WIND       PRES   REMARKS
SUPERIOR ARPT  MOSUNNY   46  40  80 N7        30.09S
ASHLAND        PTSUNNY   56  39  53 S5        30.12F
HAYWARD        SUNNY     56  38  50 S8        30.13S
SIREN          SUNNY     59  41  52 S9        30.09S
CUMBERLAND     SUNNY     54  41  62 S10       30.12S
RICE LAKE      SUNNY     55  39  54 SE9       30.14S
CHETEK         SUNNY     55  41  60 SE6       30.13S
LADYSMITH      SUNNY     54  37  53 S8        30.17S
EAU CLAIRE     SUNNY     56  38  50 S8        30.13F
MENOMONIE      MOSUNNY   55  41  59 SE3       30.13S
NEW RICHMOND   SUNNY     57  44  60 S16       30.11R
OSCEOLA        SUNNY     58  44  60 S13G18    30.12S
$$

WIZ003>005-009-010-017-018-021400-
NORTH CENTRAL WISCONSIN

CITY           SKY/WX    TMP DP  RH WIND       PRES   REMARKS
MANITOWISH WTR SUNNY     53  38  57 S8        30.17F
ARBOR VITAE    SUNNY     56  40  55 S8        30.18S
WOODRUFF       SUNNY     56  40  55 S8        30.18S
RHINELANDER    SUNNY     51  38  60 S5        30.20R
EAGLE RIVER    MOSUNNY   52  38  57 CALM      30.18S
LAND O LAKES   MOSUNNY   48  40  74 CALM      30.20S
PHILLIPS       SUNNY     54  36  51 S6        30.16S
TOMAHAWK       SUNNY     50  41  71 CALM      30.19S
MEDFORD        SUNNY     51  40  66 S9        30.17S
MERRILL        SUNNY     51  43  73 SE3       30.20S
$$

WIZ029-030-035-036-043>047-021400-
CENTRAL WISCONSIN

CITY           SKY/WX    TMP DP  RH WIND       PRES   REMARKS
WAUSAU         SUNNY     51  40  65 VRB6      30.19S
MOSINEE        SUNNY     50  45  81 S6        30.21S
MARSHFIELD     SUNNY     53  40  61 S9        30.19S
STEVENS POINT  SUNNY     52  37  56 S7        30.21S
WAUPACA        SUNNY     52  44  73 CALM      30.22S
WAUTOMA        SUNNY     53  41  64 W3        30.23R
WISC RAPIDS    SUNNY     54  35  48 S7        30.21S
CAMP DOUGLAS   MOSUNNY   50  48  93 SE3       30.19S
$$

WIZ011>013-019>022-031-037>040-048>050-021400-
NORTHEAST WISCONSIN

CITY           SKY/WX    TMP DP  RH WIND       PRES   REMARKS
ANTIGO         SUNNY     51  43  72 S6        30.20S
SHAWANO        SUNNY     52  46  78 CALM      30.22S
OCONTO         SUNNY     52  44  73 CALM      30.22S
STURGEON BAY   SUNNY     55  39  54 CALM      30.24S
GREEN BAY      SUNNY     55  41  59 CALM      30.22S
MANITOWOC      SUNNY     53  42  66 CALM      30.23S
APPLETON       MOSUNNY   54  43  66 VRB3      30.22R
CLINTONVILLE   SUNNY     52  43  71 CALM      30.21F
OSHKOSH        SUNNY     56  41  57 CALM      30.21R
$$

WIZ032>034-041-042-053>061-021400-
SOUTHWEST WISCONSIN

CITY           SKY/WX    TMP DP  RH WIND       PRES   REMARKS
LA CROSSE      SUNNY     58  42  55 S13       30.17S
SPARTA         SUNNY     55  37  51 S7        30.19S
VIROQUA        SUNNY     53  38  56 SE9       30.18F
BOSCOBEL       SUNNY     54  43  66 NE3       30.20S
PRAIRIE DU CHI SUNNY     54  40  60 SE6       30.18F
PLATTEVILLE    MOSUNNY   53  42  65 SE7       30.20R
$$

WIZ056-057-062-063-064-067-068-021400-
SOUTH CENTRAL WISCONSIN

CITY           SKY/WX    TMP DP  RH WIND       PRES   REMARKS
REEDSBURG      SUNNY     50  41  73 CALM      30.20S
BARABOO/DELLS  SUNNY     52  40  64 CALM      30.21R
LONE ROCK      MOSUNNY   52  40  63 E5        30.21S
MINERAL POINT  MOSUNNY   54  37  54 SE7       30.21R
MADISON        MOSUNNY   53  38  56 CALM      30.21R
MIDDLETON      SUNNY     55  38  51 CALM      30.22R
WATERTOWN      SUNNY     53  44  70 CALM      30.22R
MONROE         MOSUNNY   52  41  66 CALM      30.21R
JANESVILLE     MOSUNNY   52  39  62 CALM      30.21R
$$

WIZ051-052-058>065-066-070>072-021400-
SOUTHEAST WISCONSIN

CITY           SKY/WX    TMP DP  RH WIND       PRES   REMARKS
MILWAUKEE      MOSUNNY   53  39  59 NE3       30.23R
WAUKESHA       SUNNY     52  39  62 CALM      30.23R
MILWAUKEE/TIMM SUNNY     54  36  50 CALM      30.23S
RACINE         SUNNY     53  43  68 E5        30.23F
BURLINGTON     SUNNY     50  41  71 CALM      30.21S
KENOSHA          N/A    N/A N/A N/A MISG      30.22S
FOND DU LAC    SUNNY     54  42  64 S3        30.21S
SHEBOYGAN      SUNNY     52  41  66 CALM      30.22S
WEST BEND      SUNNY     52  41  66 CALM      30.22S
JUNEAU         SUNNY     52  43  71 CALM      30.23R
$$

LSZ147-162-021400-
LAKE SUPERIOR

STATION/POSITION TIME  TEMP    WIND        PRES    WAVE
                       AIR SEA DIR/SP/G            HT/PER
                 (UTC) (F)     (DEG/KT/KT) (MB)    (FT/S)
W MID LAKE BUOY  1250   41 37  140/  8/  8   N/A     1
DEVILS ISLAND    1300   53     190/  4/  6   N/A
PORT WING        1200   41      20/  4/  6   N/A
SAXON HARBOR     1200   56     190/  6/ 11   N/A
$$

LMZ867-665-643>646-021400-
LAKE MICHIGAN

STATION/POSITION TIME  TEMP    WIND        PRES    WAVE
                       AIR SEA DIR/SP/G            HT/PER
                 (UTC) (F)     (DEG/KT/KT) (MB)    (FT/S)
CHAMBERS ISLAND  1200   53     170/  1/  3   N/A
N MID LAKE BUOY  1250   40 37  160/  4/  4   N/A     0
NORTHPORT PIER   1200   54      CALM  /  3   N/A
SISTER BAY       1218   57     180/  6/  7   N/A
ALGOMA LAKESHORE 1209             CALM       N/A
KEWAUNEE LAKESHO 1200   46      CALM  /  1   N/A
SHEBOYGAN LAKESH 1300   48     120/  3/  3   N/A
PORT WASHINGTON  1240   54      70/  2/  2   N/A
ATWATER BUOY     1300   46     360/  2/  4   N/A
MILWAUKEE LAKESH 1300   47      50/  7/  7   N/A
S MID LAKE BUOY  1250   42 38   90/  6/  6   N/A     1
KENOSHA   LAKESH 1300   49      30/  5/  6   N/A
$$

TC  - TEMPERATURE IN CELSIUS
VSB - VISIBILITY IN STATUTE MILES
WCI - WIND CHILL INDEX
HX  - HEAT INDEX



USA.gov is the U.S. government's official web portal to all federal, state and local government web resources and services.